Content
SEND FEEDBACK

Daily
Averages
Monthly
Summary
United States of America

KENMARE, NORTH DAKOTA


Home > North America > United States > North Dakota
Elevation: 1949 feet     Latitude: 48 40N     Longitude: 102 06W

WEATHER
 
SELECT A DAY
Number of Records: 82,900;   Date Range: 12/7/10 - 9/17/14
 
SHARE

PRINT THIS DATA

[ ← Previous Day ]
WEATHER ALMANAC - DECEMBER 17, 2013
[ Next Day → ]
[ °C ]   °F
Weather ElementAverageHighLow
Temperature19.6 °F24.8 °F (3:15 pm)14 °F (6:15 am)
Dewpoint16.3 °F23 °F (11:55 pm)10.4 °F (6:15 am)
Humidity87.3 %100 % (10:35 pm)80 % (12:55 pm)
Barometer29.93 in30.09 in (6:35 am)29.59 in (11:35 pm)
Wind Speed10.1 mph18.4 mph (1:55 am)
Wind Gust27.6 mph (2:15 am)
Weather ElementAverage
Visibility10 mi
Wind DirectionSW (230.6 °)

Weather ElementTotal
Precipitation---
Heating Degree Days45.6 (Base 65)
Averaged from 71 records on December 17, 2013
WEATHER CONDITIONS BREAKOUT
WIND DIRECTION BREAKOUT
WEATHER BY HOUR - DECEMBER 17, 2013
[ °C ]   °F
Local TimeTemperatureDewpointHumidityBarometerVisibilityWind DirectionWind SpeedGust SpeedPrecipitationEventsConditions
12:35 AM21.2 °F17.6 °F86 %30.02 in10.0 miWNW (290°)15.0 mph23.0 mphClear
12:55 AM19.4 °F17.6 °F93 %30.03 in10.0 miWNW (290°)13.8 mph19.6 mphClear
1:15 AM19.4 °F15.8 °F86 %30.03 in10.0 miWNW (290°)13.8 mphClear
1:35 AM19.4 °F15.8 °F86 %30.03 in10.0 miWNW (290°)17.3 mph23.0 mphClear
1:55 AM19.4 °F15.8 °F86 %30.04 in10.0 miWNW (290°)18.4 mph23.0 mphClear
2:15 AM19.4 °F15.8 °F86 %30.04 in10.0 miWNW (290°)18.4 mph27.6 mphClear
2:35 AM19.4 °F15.8 °F86 %30.05 in10.0 miWNW (300°)18.4 mph25.3 mphClear
2:55 AM19.4 °F15.8 °F86 %30.06 in10.0 miWNW (290°)18.4 mph25.3 mphClear
3:15 AM19.4 °F15.8 °F86 %30.06 in10.0 miWNW (290°)17.3 mph23.0 mphClear
3:35 AM19.4 °F15.8 °F86 %30.07 in10.0 miWNW (290°)17.3 mph24.2 mphClear
3:55 AM17.6 °F15.8 °F93 %30.08 in10.0 miWNW (290°)16.1 mph19.6 mphClear
4:15 AM17.6 °F14.0 °F86 %30.08 in10.0 miWNW (290°)15.0 mph19.6 mphClear
4:35 AM17.6 °F14.0 °F86 %30.08 in10.0 miWNW (300°)16.1 mph21.9 mphClear
4:55 AM17.6 °F14.0 °F86 %30.08 in10.0 miWNW (300°)16.1 mph23.0 mphClear
5:15 AM17.6 °F14.0 °F86 %30.08 in10.0 miWNW (300°)16.1 mph19.6 mphClear
5:35 AM17.6 °F14.0 °F86 %30.07 in10.0 miWNW (290°)11.5 mphClear
5:55 AM15.8 °F12.2 °F86 %30.08 in10.0 miWest (280°)12.7 mphClear
6:15 AM14.0 °F10.4 °F86 %30.08 in10.0 miWest (270°)11.5 mphClear
6:35 AM15.8 °F12.2 °F86 %30.09 in10.0 miWNW (290°)11.5 mphClear
6:55 AM14.0 °F12.2 °F93 %30.09 in10.0 miWest (280°)11.5 mphClear
7:15 AM15.8 °F14.0 °F93 %30.08 in10.0 miWest (280°)13.8 mphClear
7:35 AM15.8 °F14.0 °F93 %30.08 in10.0 miWNW (290°)12.7 mphClear
7:55 AM15.8 °F14.0 °F93 %30.07 in10.0 miWNW (290°)12.7 mphClear
8:15 AM15.8 °F14.0 °F93 %30.08 in10.0 miWest (280°)11.5 mphClear
8:35 AM14.0 °F12.2 °F93 %30.08 in10.0 miWest (280°)11.5 mphClear
8:55 AM14.0 °F12.2 °F93 %30.08 in10.0 miWNW (290°)10.4 mphClear
9:15 AM14.0 °F12.2 °F93 %30.08 in10.0 miWest (280°)11.5 mphClear
9:35 AM15.8 °F14.0 °F93 %30.08 in10.0 miWest (280°)9.2 mphClear
9:55 AM15.8 °F14.0 °F93 %30.09 in10.0 miWest (280°)10.4 mphClear
10:15 AM17.6 °F14.0 °F86 %30.09 in10.0 miWNW (290°)10.4 mphClear
10:35 AM17.6 °F14.0 °F86 %30.08 in10.0 miWest (280°)8.1 mphClear
10:55 AM17.6 °F14.0 °F86 %30.07 in10.0 miWest (270°)8.1 mphClear
11:15 AM19.4 °F15.8 °F86 %30.07 in10.0 miWest (260°)6.9 mphClear
11:35 AM17.6 °F14.0 °F86 %30.05 in10.0 miSouth (170°)5.8 mphClear
11:55 AM19.4 °F15.8 °F86 %30.03 in10.0 miWSW (250°)4.6 mphClear
12:15 PM19.4 °F15.8 °F86 %30.03 in10.0 miWSW (240°)5.8 mphClear
12:35 PM19.4 °F15.8 °F86 %30.02 in10.0 miWest (260°)4.6 mphClear
12:55 PM21.2 °F15.8 °F80 %30.00 in10.0 miWSW (240°)5.8 mphClear
1:15 PM23.0 °F17.6 °F80 %29.99 in10.0 miSW (220°)8.1 mphClear
1:35 PM23.0 °F17.6 °F80 %29.97 in10.0 miSW (220°)8.1 mphClear
1:55 PM23.0 °F17.6 °F80 %29.96 in10.0 miSW (220°)9.2 mphClear
2:15 PM23.0 °F17.6 °F80 %29.94 in10.0 miSW (220°)10.4 mphClear
2:35 PM23.0 °F17.6 °F80 %29.93 in10.0 miSW (220°)13.8 mphClear
2:55 PM23.0 °F17.6 °F80 %29.92 in10.0 miSSW (200°)9.2 mphMostly Cloudy
3:15 PM24.8 °F19.4 °F80 %29.91 in10.0 miSouth (190°)5.8 mphOvercast
3:35 PM24.8 °F19.4 °F80 %29.89 in10.0 miSouth (180°)6.9 mphMostly Cloudy
3:55 PM23.0 °F19.4 °F86 %29.87 in10.0 miSouth (170°)8.1 mphPartly Cloudy
4:15 PM23.0 °F19.4 °F86 %29.86 in10.0 miSouth (170°)6.9 mphClear
4:35 PM23.0 °F19.4 °F86 %29.85 in10.0 miSouth (180°)8.1 mphClear
4:55 PM23.0 °F17.6 °F80 %29.84 in10.0 miSouth (170°)9.2 mphClear
5:15 PM19.4 °F17.6 °F93 %29.82 in10.0 miSouth (170°)6.9 mphClear
5:35 PM19.4 °F17.6 °F93 %29.81 in10.0 miSE (130°)5.8 mphClear
5:55 PM19.4 °F17.6 °F93 %29.79 in10.0 miSSE (150°)8.1 mphClear
6:15 PM19.4 °F17.6 °F93 %29.78 in10.0 miSouth (170°)5.8 mphClear
6:35 PM23.0 °F17.6 °F80 %29.77 in10.0 miSouth (170°)5.8 mphClear
6:55 PM23.0 °F17.6 °F80 %29.76 in10.0 miSSE (160°)11.5 mphClear
7:15 PM23.0 °F17.6 °F80 %29.74 in10.0 miSE (140°)9.2 mphClear
7:35 PM23.0 °F17.6 °F80 %29.73 in10.0 miSSE (160°)12.7 mphClear
7:55 PM21.2 °F17.6 °F86 %29.71 in10.0 miSSE (160°)11.5 mphClear
8:15 PM21.2 °F17.6 °F86 %29.70 in10.0 miSSE (160°)9.2 mphClear
8:35 PM21.2 °F17.6 °F86 %29.69 in10.0 miSSE (150°)8.1 mphClear
8:55 PM21.2 °F17.6 °F86 %29.67 in10.0 miESE (120°)6.9 mphClear
9:15 PM21.2 °F17.6 °F86 %29.66 in10.0 miSSE (160°)8.1 mphClear
9:35 PM23.0 °F19.4 °F86 %29.64 in10.0 miSouth (180°)8.1 mphClear
9:55 PM19.4 °F17.6 °F93 %29.63 in10.0 miSSE (160°)4.6 mphClear
10:15 PM21.2 °F19.4 °F93 %29.62 in10.0 miSouth (180°)3.5 mphClear
10:35 PM19.4 °F19.4 °F100 %29.62 in10.0 miCalmClear
10:55 PM23.0 °F21.2 °F93 %29.61 in10.0 miSSW (200°)5.8 mphClear
11:15 PM21.2 °F19.4 °F93 %29.60 in10.0 miSSW (210°)3.5 mphClear
11:35 PM21.2 °F19.4 °F93 %29.59 in10.0 miSW (230°)3.5 mphClear
11:55 PM23.0 °F23.0 °F100 %29.60 in10.0 miWSW (240°)8.1 mphClear
Hourly data recorded from K08D, located miles away from Kenmare, North Dakota







STORIES FROM OUR PARTNERS